FW8104 Weather Reports


Display with metric or nautical units.
time (UTC)temp
F
wind
direction
speed
MPH
gust
MPH
rain 1hr
in
rain 24hr
in
rain mn
in
humidity
%
barometer
mb
20260505090124 61 173 7.0 8.0 0.28 0.49 0.49 98 1003.5
20260505085621 61 166 5.0 7.0 0.17 0.47 0.47 98 1004.0
20260505085120 61 193 6.0 9.0 0.19 0.44 0.44 98 1003.7
20260505084617 61 202 4.0 7.0 0.35 0.44 0.44 98 1003.6
20260505084115 61 151 4.0 7.0 0.38 0.42 0.42 98 1003.6
20260505083613 61 184 1.0 2.0 0.19 0.39 0.39 98 1004.4
20260505083109 61 214 2.0 3.0 0.00 0.36 0.36 98 1004.6
20260505082605 61 209 2.0 2.0 0.00 0.36 0.36 98 1004.5
20260505082102 61 183 3.0 4.0 0.24 0.36 0.36 98 1004.3
20260505081558 61 163 4.0 6.0 0.24 0.36 0.36 98 1004.1
20260505081055 61 169 11.0 13.0 0.05 0.32 0.32 97 1003.7
20260505080551 62 185 8.0 10.0 0.05 0.32 0.32 97 1003.4
20260505080049 61 205 8.0 9.0 0.00 0.31 0.31 98 1003.5
20260505075544 61 166 6.0 10.0 0.07 0.31 0.31 98 1003.3
20260505075041 61 216 6.0 8.0 0.07 0.31 0.31 98 1003.2
20260505074538 61 158 8.0 9.0 0.00 0.30 0.30 99 1003.1
20260505074036 61 191 10.0 11.0 0.00 0.30 0.30 99 1003.6
20260505073533 61 151 6.0 7.0 0.00 0.30 0.30 99 1003.7
20260505073032 61 134 15.0 18.0 0.00 0.30 0.30 99 1003.8
20260505072526 61 172 9.0 14.0 0.00 0.30 0.30 99 1004.1
20260505072023 62 140 14.0 17.0 0.00 0.30 0.30 99 1004.2
20260505071518 62 115 6.0 8.0 0.00 0.30 0.30 99 1004.6
20260505071017 62 189 8.0 9.0 0.05 0.30 0.30 99 1005.4
20260505070514 62 167 7.0 8.0 0.05 0.30 0.30 99 1005.0
20260505070010 62 200 4.0 4.0 0.07 0.29 0.29 99 1005.4
20260505065506 62 136 3.0 4.0 0.12 0.29 0.29 99 1006.1
20260505065002 62 168 9.0 10.0 0.12 0.28 0.28 98 1006.1
20260505064459 62 173 3.0 4.0 0.12 0.27 0.27 98 1006.7
20260505063958 62 200 1.0 1.0 0.12 0.26 0.26 98 1006.9
20260505063454 62 177 2.0 2.0 0.14 0.25 0.25 98 1006.7
20260505062950 62 188 2.0 2.0 0.24 0.24 0.24 97 1006.7
20260505062448 62 196 4.0 4.0 0.40 0.23 0.23 97 1007.2
20260505061944 62 205 1.0 2.0 0.42 0.20 0.20 96 1007.2
20260505061443 63 202 3.0 6.0 0.35 0.17 0.17 95 1007.3
20260505060940 63 218 6.0 9.0 0.38 0.14 0.14 94 1007.2
20260505060437 63 266 2.0 3.0 0.28 0.10 0.10 93 1006.4
20260505055933 63 214 2.0 3.0 0.24 0.08 0.08 92 1006.5
20260505055429 64 231 3.0 4.0 0.24 0.06 0.06 91 1006.2
20260505054926 65 226 6.0 7.0 0.17 0.04 0.04 87 1005.7
20260505054423 65 257 5.0 7.0 0.12 0.02 0.02 85 1005.5
20260505053921 66 194 1.0 2.0 0.07 0.01 0.01 82 1005.4
20260505053418 67 236 2.0 3.0 0.00 0.00 0.00 78 1005.2
20260505052915 68 212 3.0 3.0 0.00 0.00 0.00 75 1004.8
20260505052412 69 176 2.0 2.0 0.00 0.00 0.00 74 1004.3
20260505051909 69 177 6.0 6.0 0.00 0.00 0.00 73 1004.3
20260505051406 69 217 4.0 4.0 0.00 0.00 0.00 71 1004.4
20260505050904 69 187 3.0 4.0 0.00 0.00 0.00 71 1004.4
20260505050402 69 155 7.0 9.0 0.00 0.00 0.00 70 1004.3
20260505041330 69 175 6.0 8.0 0.00 0.00 0.00 70 1004.6
20260505040827 69 166 4.0 4.0 0.00 0.00 0.00 69 1004.3
20260505040324 69 174 5.0 6.0 0.00 0.00 0.00 69 1004.2
20260505035821 69 186 6.0 7.0 0.00 0.00 0.00 69 1004.3
20260505035317 70 226 9.0 10.0 0.00 0.00 0.00 68 1004.3
20260505034814 70 187 3.0 4.0 0.00 0.00 0.00 68 1004.5
20260505034311 70 164 7.0 9.0 0.00 0.00 0.00 68 1004.7
20260505033808 70 160 4.0 6.0 0.00 0.00 0.00 68 1004.8
20260505033305 70 161 5.0 7.0 0.00 0.00 0.00 68 1005.0
20260505032803 70 159 6.0 8.0 0.00 0.00 0.00 68 1004.8
20260505032259 70 159 7.0 8.0 0.00 0.00 0.00 68 1004.6
20260505031757 70 207 6.0 7.0 0.00 0.00 0.00 67 1005.0
20260505031253 71 181 7.0 9.0 0.00 0.00 0.00 67 1004.7
20260505030750 70 143 5.0 7.0 0.00 0.00 0.00 67 1004.8
20260505030246 71 165 8.0 10.0 0.00 0.00 0.00 66 1004.6
20260505025741 71 176 6.0 8.0 0.00 0.00 0.00 66 1004.9
20260505025240 71 163 9.0 9.0 0.00 0.00 0.00 66 1004.9
20260505024738 71 161 7.0 8.0 0.00 0.00 0.00 66 1004.8
20260505024235 71 194 8.0 11.0 0.00 0.00 0.00 66 1004.8
20260505023732 71 187 8.0 8.0 0.00 0.00 0.00 66 1004.4
20260505023229 71 167 10.0 13.0 0.00 0.00 0.00 66 1004.6
20260505022726 71 193 9.0 10.0 0.00 0.00 0.00 65 1004.6
20260505022223 71 166 11.0 11.0 0.00 0.00 0.00 65 1004.5
20260505021720 71 176 9.0 10.0 0.00 0.00 0.00 66 1004.5
20260505021217 71 171 4.0 6.0 0.00 0.00 0.00 66 1004.4
20260505020712 71 178 5.0 6.0 0.00 0.00 0.00 65 1004.6
20260505020208 72 171 5.0 6.0 0.00 0.00 0.00 65 1004.2
20260505015706 72 191 6.0 7.0 0.00 0.00 0.00 64 1004.2
20260505015202 72 181 7.0 10.0 0.00 0.00 0.00 64 1004.3
20260505014659 72 165 6.0 9.0 0.00 0.00 0.00 64 1004.1
20260505014156 73 159 6.0 9.0 0.00 0.00 0.00 63 1004.2
20260505013654 73 170 5.0 7.0 0.00 0.00 0.00 63 1004.1
20260505013151 73 192 6.0 7.0 0.00 0.00 0.00 63 1004.1
20260505012649 73 194 3.0 6.0 0.00 0.00 0.00 63 1004.1
20260505012146 73 139 8.0 10.0 0.00 0.00 0.00 63 1004.3
20260505011641 73 162 2.0 3.0 0.00 0.00 0.00 63 1004.2
20260505011139 73 195 3.0 4.0 0.00 0.00 0.00 63 1003.9
20260505010639 73 210 6.0 7.0 0.00 0.00 0.00 63 1004.1
20260505010136 73 210 5.0 9.0 0.00 0.00 0.00 63 1004.2
20260505005632 73 179 8.0 9.0 0.00 0.00 0.00 63 1004.2
20260505005129 73 193 4.0 6.0 0.00 0.00 0.00 63 1004.3
20260505004627 74 180 4.0 6.0 0.00 0.00 0.00 62 1004.2
20260505004123 74 218 5.0 6.0 0.00 0.00 0.00 62 1004.2
20260505003620 74 185 2.0 3.0 0.00 0.00 0.00 62 1004.2
20260505003118 74 222 5.0 6.0 0.00 0.00 0.00 61 1004.3
20260505002614 74 215 4.0 6.0 0.00 0.00 0.00 61 1004.1
20260505002107 75 189 5.0 6.0 0.00 0.00 0.00 60 1004.2
20260505001603 75 190 8.0 10.0 0.00 0.00 0.00 58 1004.1
20260505001100 75 215 8.0 9.0 0.00 0.00 0.00 58 1004.3
20260505000552 75 221 8.0 9.0 0.00 0.00 0.00 58 1004.2
20260505000050 75 231 8.0 14.0 0.00 0.00 0.00 58 1004.1
20260504235546 76 176 9.0 11.0 0.00 0.00 0.00 58 1003.9
20260504235043 76 224 6.0 8.0 0.00 0.00 0.00 59 1004.0
20260504234540 76 204 10.0 15.0 0.00 0.00 0.00 58 1003.9
20260504234037 77 226 9.0 11.0 0.00 0.00 0.00 57 1003.7
20260504233532 77 235 6.0 7.0 0.00 0.00 0.00 57 1003.8
20260504233029 77 195 11.0 15.0 0.00 0.00 0.00 55 1003.9
20260504232526 77 194 11.0 14.0 0.00 0.00 0.00 55 1004.1
20260504232024 77 209 11.0 15.0 0.00 0.00 0.00 55 1003.9
20260504231521 77 197 6.0 8.0 0.00 0.00 0.00 56 1003.8
20260504231017 77 241 6.0 7.0 0.00 0.00 0.00 55 1004.0
20260504230513 77 200 8.0 10.0 0.00 0.00 0.00 55 1004.0
20260504230012 78 237 7.0 8.0 0.00 0.00 0.00 55 1003.9
20260504225509 78 221 12.0 16.0 0.00 0.00 0.00 55 1003.9
20260504225006 78 243 13.0 15.0 0.00 0.00 0.00 54 1003.8
20260504224503 79 195 6.0 10.0 0.00 0.00 0.00 55 1003.6
20260504224000 79 182 7.0 9.0 0.00 0.00 0.00 54 1003.6
20260504223456 79 153 6.0 8.0 0.00 0.00 0.00 55 1003.6
20260504222951 80 186 8.0 11.0 0.00 0.00 0.00 54 1003.4
20260504222449 80 177 4.0 8.0 0.00 0.00 0.00 54 1003.4
20260504221947 80 232 9.0 10.0 0.00 0.00 0.00 53 1003.4
20260504221444 80 196 11.0 15.0 0.00 0.00 0.00 52 1003.4
20260504220941 80 185 5.0 7.0 0.00 0.00 0.00 53 1003.5
20260504220437 80 242 10.0 11.0 0.00 0.00 0.00 53 1003.6
20260504215934 80 203 13.0 19.0 0.00 0.00 0.00 52 1003.8
20260504215431 80 196 14.0 17.0 0.00 0.00 0.00 52 1003.5
20260504214927 80 227 10.0 11.0 0.00 0.00 0.00 52 1003.6
20260504214424 79 143 8.0 9.0 0.00 0.00 0.00 52 1003.5
20260504213920 80 274 5.0 8.0 0.00 0.00 0.00 53 1003.8
20260504213416 80 202 15.0 19.0 0.00 0.00 0.00 53 1003.7
20260504212914 80 220 9.0 10.0 0.00 0.00 0.00 53 1003.9
20260504212415 80 226 8.0 10.0 0.00 0.00 0.00 52 1003.8
20260504211913 80 215 12.0 13.0 0.00 0.00 0.00 52 1003.9
20260504211409 80 290 6.0 10.0 0.00 0.00 0.00 52 1004.0
20260504210906 80 205 9.0 11.0 0.00 0.00 0.00 52 1003.9
20260504210403 80 240 8.0 10.0 0.00 0.00 0.00 53 1003.9
20260504205900 80 187 16.0 22.0 0.00 0.00 0.00 52 1004.1
20260504205358 80 224 9.0 16.0 0.00 0.00 0.00 52 1004.3
20260504204856 80 231 6.0 8.0 0.00 0.00 0.00 53 1004.4
20260504204354 80 206 12.0 18.0 0.00 0.00 0.00 52 1004.4
20260504203854 81 203 11.0 15.0 0.00 0.00 0.00 52 1004.5
20260504203349 81 233 8.0 9.0 0.00 0.00 0.00 52 1004.4
20260504202845 81 207 10.0 13.0 0.00 0.00 0.00 52 1004.5
20260504202343 80 159 11.0 16.0 0.00 0.00 0.00 53 1004.7
20260504201839 80 214 10.0 14.0 0.00 0.00 0.00 52 1004.7
20260504201337 80 225 8.0 10.0 0.00 0.00 0.00 52 1004.5
20260504200834 80 234 14.0 18.0 0.00 0.00 0.00 52 1004.7
20260504200331 80 199 16.0 17.0 0.00 0.00 0.00 52 1004.6
20260504195827 81 210 11.0 16.0 0.00 0.00 0.00 52 1004.7
20260504195323 80 237 5.0 8.0 0.00 0.00 0.00 53 1004.7
20260504194820 80 213 11.0 17.0 0.00 0.00 0.00 53 1004.8
20260504194316 81 244 7.0 9.0 0.00 0.00 0.00 52 1004.9
20260504193812 80 234 12.0 13.0 0.00 0.00 0.00 53 1005.0
20260504193310 80 212 9.0 13.0 0.00 0.00 0.00 54 1005.1
20260504192808 80 224 12.0 15.0 0.00 0.00 0.00 53 1005.3
20260504192306 80 224 13.0 15.0 0.00 0.00 0.00 53 1005.2
20260504191804 80 226 10.0 11.0 0.00 0.00 0.00 52 1005.3
20260504191301 81 198 11.0 13.0 0.00 0.00 0.00 53 1005.2
20260504190756 80 197 14.0 17.0 0.00 0.00 0.00 53 1005.3
20260504190253 80 231 10.0 13.0 0.00 0.00 0.00 53 1005.2
20260504185749 79 181 18.0 26.0 0.00 0.00 0.00 52 1005.4
20260504185246 80 198 12.0 16.0 0.00 0.00 0.00 53 1005.4
20260504184742 79 224 6.0 8.0 0.00 0.00 0.00 52 1005.2
20260504184238 79 240 15.0 21.0 0.00 0.00 0.00 51 1005.3
20260504183734 79 223 7.0 9.0 0.00 0.00 0.00 54 1005.1
20260504183231 78 220 11.0 13.0 0.00 0.00 0.00 53 1005.2
20260504182729 78 240 11.0 14.0 0.00 0.00 0.00 52 1005.4
20260504182226 78 208 12.0 16.0 0.00 0.00 0.00 53 1005.2
20260504181724 78 229 14.0 21.0 0.00 0.00 0.00 53 1005.4
20260504181221 77 211 12.0 17.0 0.00 0.00 0.00 52 1005.3
20260504180720 77 221 17.0 26.0 0.00 0.00 0.00 52 1005.6
20260504180218 77 212 13.0 18.0 0.00 0.00 0.00 53 1005.3
20260504175716 77 198 13.0 16.0 0.00 0.00 0.00 53 1005.7
20260504175212 77 188 15.0 18.0 0.00 0.00 0.00 53 1005.6
20260504174710 77 243 7.0 9.0 0.00 0.00 0.00 54 1005.6
20260504174208 76 197 12.0 16.0 0.00 0.00 0.00 54 1005.6
20260504173704 76 167 10.0 16.0 0.00 0.00 0.00 54 1005.6
20260504173201 77 260 14.0 17.0 0.00 0.00 0.00 54 1005.8
20260504172658 76 199 21.0 27.0 0.00 0.00 0.00 53 1006.0
20260504172154 76 233 13.0 19.0 0.00 0.00 0.00 54 1005.9
20260504171650 77 176 6.0 9.0 0.00 0.00 0.00 54 1005.8
20260504171148 75 228 19.0 24.0 0.00 0.00 0.00 54 1005.9
20260504170644 77 285 15.0 18.0 0.00 0.00 0.00 54 1006.1
20260504170142 75 273 4.0 7.0 0.00 0.00 0.00 54 1006.0
20260504151028 72 212 10.0 17.0 0.00 0.00 0.00 57 1006.5
20260504150525 71 210 9.0 11.0 0.00 0.00 0.00 57 1006.8
20260504140950 69 201 11.0 14.0 0.00 0.00 0.00 57 1007.7
20260504140447 69 244 6.0 8.0 0.00 0.00 0.00 58 1007.6
20260504130411 67 217 10.0 15.0 0.00 0.00 0.00 59 1007.9
20260504110259 64 219 8.0 10.0 0.00 0.00 0.00 61 1008.3
20260504100216 65 221 3.0 4.0 0.00 0.00 0.00 59 1008.7